"Pseudo-MPEC" for C45ZGL1

Created 2026 Mar 11 11:35:16 UT using Find_Orb

Click here for an explanation of pseudo-MPECs

 
 Astrometry: 
     C45ZGL1*1C2026 03 08.39477011 58 53.548+11 12 46.69   ~38A5 19.34GVNEOCP703
     C45ZGL1 1C2026 03 08.39705411 58 51.150+11 14 02.40   ~38A5       VNEOCP703
     C45ZGL1 1C2026 03 08.39933611 58 48.680+11 15 16.42   ~38A5 18.37GVNEOCP703
     C45ZGL1 1C2026 03 08.40162111 58 46.254+11 16 31.37   ~38A5 18.38GVNEOCP703
     C45ZGL1 1C2026 03 08.41760011 58 29.042+11 25 27.41   ~38AZ 18.59GVNEOCPG96
     C45ZGL1 1C2026 03 08.42274311 58 23.308+11 28 24.82   ~38AZ 18.35GVNEOCPG96
     C45ZGL1 1C2026 03 08.42788211 58 17.594+11 31 24.13   ~38AZ 18.51GVNEOCPG96
     C45ZGL1 1C2026 03 08.43302611 58 11.863+11 34 24.89   ~38AZ 18.60GVNEOCPG96
     C45ZGL1  C2026 03 08.47204211 57 25.228+11 58 03.33   ~38C5 18.3 GWNEOCPH01
     C45ZGL1  C2026 03 08.47605011 57 20.486+12 00 38.75   ~38C5 18.1 GWNEOCPH01
     C45ZGL1 1C2026 03 08.48536511 57 10.436+12 07 11.21   ~38C5 18.26GVNEOCPI52
     C45ZGL1  C2026 03 08.48546111 57 09.216+12 06 49.90   ~38C5 18.5 GWNEOCPH01
     C45ZGL1 1C2026 03 08.48587411 57 09.806+12 07 31.26   ~38C5 18.19GVNEOCPI52
     C45ZGL1 1C2026 03 08.48639911 57 09.173+12 07 52.14   ~38C5 18.34GVNEOCPI52
     C45ZGL1 1C2026 03 08.48691211 57 08.528+12 08 13.06   ~38C5 18.44GVNEOCPI52
     C45ZGL1  C2026 03 08.49241511 57 00.804+12 11 29.75   ~38C5 18.2 GWNEOCPH01
     C45ZGL1 KB2026 03 08.75132511 50 43.788+16 36 54.36   ~39H5 17.3 GVNEOCPP13
     C45ZGL1 KB2026 03 08.75777211 50 25.776+16 46 48.79   ~39H5 17.3 GVNEOCPP13
     C45ZGL1 KB2026 03 08.76374911 50 08.690+16 56 12.12   ~39H5 17.6 GVNEOCPP13
     C45ZGL1 KB2026 03 08.76942711 49 52.070+17 05 19.10   ~39H5 17.2 GVNEOCPP13
     C45ZGL1 KC2026 03 08.80856 11 49 20.66 +18 10 19.1    ~390K 17.5 GXNEOCPL04
     C45ZGL1 KC2026 03 08.81276 11 49 07.55 +18 18 27.8    ~390K 17.5 GXNEOCPL04
     C45ZGL1 SB2026 03 08.83104011 48 14.90 +18 55 11.2    ~38KZ 17.2 GXNEOCP595
     C45ZGL1 KB2026 03 08.83143711 48 13.57 +18 56 01.9    ~38KZ 17.2 GXNEOCP595
     C45ZGL1 SB2026 03 08.83192611 48 11.89 +18 57 03.8    ~38KZ       XNEOCP595
     C45ZGL1 KB2026 03 08.83782311 47 44.34 +19 09 02.7    ~38Ko 16.0 GVNEOCPG02
     C45ZGL1 KB2026 03 08.84022011 47 35.76 +19 14 17.0    ~38Ko 16.8 GVNEOCPG02
     C45ZGL1 KB2026 03 08.84280711 47 26.32 +19 20 00.3    ~38Ko 16.8 GVNEOCPG02
     C45ZGL1 KC2026 03 08.84879211 46 57.682+19 34 05.12   ~38M5 16.9 GXNEOCPL18
     C45ZGL1 KC2026 03 08.85158711 46 46.807+19 40 31.33   ~38M5 17.3 GXNEOCPL18
     C45ZGL1 KC2026 03 08.85428011 46 36.178+19 46 46.74   ~38M5 17.4 GXNEOCPL18
     C45ZGL1 KC2026 03 08.86603111 46 07.67 +20 15 37.9    ~38LZ 16.8 GVNEOCP104
     C45ZGL1 KC2026 03 08.86859311 45 57.11 +20 22 00.4    ~38LZ 16.6 GVNEOCP104
     C45ZGL1 KC2026 03 08.86987311 45 51.71 +20 25 13.1    ~38LZ 16.6 GVNEOCP104
     C45ZGL1 KB2026 03 08.88145811 44 41.537+20 55 14.88   ~38Lo 17.0 GXNEOCPM35
     C45ZGL1 KB2026 03 08.88358811 44 31.654+21 00 54.54   ~38Lo 17.1 GXNEOCPM35
     C45ZGL1 KB2026 03 08.88592611 44 20.618+21 07 10.92   ~38Lo 17.2 GXNEOCPM35
     C45ZGL1 KB2026 03 08.89184 11 43 53.59 +21 23 40.3    ~38M5 17.0 GXNEOCPM45
     C45ZGL1 KB2026 03 08.89259 11 43 49.91 +21 25 45.5    ~38M5 16.6 GXNEOCPM45
     C45ZGL1 KB2026 03 08.89329 11 43 46.43 +21 27 43.5    ~38M5 16.9 GXNEOCPM45
     C45ZGL1 KB2026 03 08.89397311 44 15.25 +21 28 39.3    ~38M5 17.6 GXNEOCP958
     C45ZGL1 KB2026 03 08.89664311 44 02.49 +21 36 15.6    ~38M5 17.7 GXNEOCP958
     C45ZGL1 KB2026 03 08.89925011 43 49.79 +21 43 46.7    ~38M5 17.1 GXNEOCP958
     C45ZGL1 KB2026 03 08.94941711 38 38.58 +24 25 48.7    ~38NZ 16.8 GXNEOCPL65
     C45ZGL1 KB2026 03 08.95681411 37 46.83 +24 54 04.0    ~38NZ 17.2 GXNEOCPL65
     C45ZGL1 KB2026 03 08.96508811 36 45.69 +25 27 04.3    ~38NZ 17.1 GXNEOCPL65
     C45ZGL1 KC2026 03 08.97169311 35 37.10 +25 57 19.2    ~38No 17.0 GVNEOCPK88
     C45ZGL1 KC2026 03 08.97259911 35 29.72 +26 01 10.0    ~38No 17.0 GVNEOCPK88
     C45ZGL1 KC2026 03 08.97361811 35 21.35 +26 05 30.7    ~38No 16.9 GVNEOCPK88
     C45ZGL1 KB2026 03 08.97526611 35 24.269+26 10 24.38   ~390K 16.3 GXNEOCPL38
     C45ZGL1 KB2026 03 08.97636611 35 15.223+26 15 11.41   ~390K 16.5 GXNEOCPL38
     C45ZGL1 KB2026 03 09.05583811 23 02.057+33 42 40.43   ~392Z 16.5 GWNEOCP932
     C45ZGL1 KB2026 03 09.05654711 22 51.403+33 47 53.12   ~392Z 16.2 GWNEOCP932
     C45ZGL1 KB2026 03 09.06567911 20 26.923+34 57 24.48   ~392Z 16.1 GWNEOCP932
     C45ZGL1 KB2026 03 09.06639211 20 15.048+35 03 01.19   ~392Z 16.2 GWNEOCP932
     C45ZGL1 KB2026 03 09.07353011 18 52.414+36 01 32.30   ~392K 16.6 VZNEOCPW05
     C45ZGL1 KB2026 03 09.07436311 18 37.615+36 08 30.62   ~392K 18.6 VZNEOCPW05
     C45ZGL1 KB2026 03 09.08318 11 15 36.22 +37 21 47.5    ~392Z 16.1 GXNEOCPW13
     C45ZGL1 KB2026 03 09.08396 11 15 20.63 +37 28 46.6    ~392Z 16.2 GXNEOCPW13
     C45ZGL1 KB2026 03 09.08474 11 15 04.87 +37 35 47.3    ~392Z 16.4 GXNEOCPW13

Station data:
(104) San Marcello Pistoiese  (N44.064178 E10.803750)  Italy.  Observers P.
   Bacci, M. Maestripieri. Measurers P. Bacci, L. Tesi, G. Fagioli. 0.60-m
   reflector + CCD.
(595) Farra d'Isonzo  (N45.915731 E13.525780)  Italy.  Observers S. Aschi, E.
   Pettarin, G. Panterotto. Measurers S. Aschi, E. Pettarin. 0.40-m f/5.15
   reflector + CCD.
(703) Catalina Sky Survey  (N32.417029 W110.732640)  US/Arizona.  Observer E.
   J. Christensen. Measurers T. Beuden, V. F. Carvajal, D. Fay, J. B.
   Fazekas, D. C. Fuls, A. R. Gibbs, A. D. Grauer, H. Gröller, J. K. Hogan,
   R. A. Kowalski, S. M. Larson, G. J. Leonard, D. Rankin, R. L. Seaman, F.
   C. Shelly, K. W. Wierzchoś. 0.68 m Schmidt + 10K CCD.
(932) John J. McCarthy Obs., New Milford  (N41.525744 W73.425990)
   US/Connecticut.  Observer M. Robson. 0.4-m f/7.5 Schmidt-Cassegrain + CCD.
(958) Observatoire de Dax  (N43.693381 W1.030530)  France.  Observer P.
   Dupouy. 0.32-m Schmidt-Cassegrain.
(G02) KYSUCE Observatory, Kysucke Nove Mesto  (N49.307313 E18.765390)
   Slovakia.  Observer M. Urbanik. 0.40-m f/4.4 reflector + CCD.
(G96) Mt. Lemmon Survey  (N32.442729 W110.788720)  US/Arizona.  Observer E.
   J. Christensen. Measurers T. Beuden, V. F. Carvajal, D. Fay, J. B.
   Fazekas, D. C. Fuls, A. R. Gibbs, A. D. Grauer, H. Gröller, J. K. Hogan,
   R. A. Kowalski, S. M. Larson, G. J. Leonard, D. Rankin, R. L. Seaman, F.
   C. Shelly, K. W. Wierzchoś. 1.5-m reflector + 10K CCD.
(H01) Magdalena Ridge Observatory, Socorro  (N33.984833 W107.189333)  US/New
   Mexico.  Observers W. H. Ryan, E. V. Ryan. Measurer W. H. Ryan. 2.4-m
   f/8.9 reflector + CCD.
(I52) Steward Observatory, Mt. Lemmon Station  (N32.442570 W110.788920)
   US/Arizona. Measurers T. Beuden, V. F. Carvajal, D. Fay, J. B. Fazekas, D.
   C. Fuls, A. R. Gibbs, A. D. Grauer, H. Gröller, J. K. Hogan, R. A.
   Kowalski, S. M. Larson, G. J. Leonard, D. Rankin, R. L. Seaman, F. C.
   Shelly, K. W. Wierzchoś. 1.0-m prime focus + CCD.
(K88) GINOP-KHK, Piszkéstető  (N47.917453 E19.893670)  Hungary.  Observer K.
   Sárneczky. 0.60-m Schmidt + CCD.
(L04) ROASTERR-1 Observatory, Cluj-Napoca  (N46.820952 E23.596400)  Romania.
   Observer L. Hudin. 0.1-m f/9 refractor + CCD.
(L18) QOS Observatory, Zalistci  (N48.848292 E26.718280)  Ukraine.  Observers
   O. V. Kravchenko, Y. V. Tanasiychuk. Measurer A. M. Kozhukhov. 0.50-m
   f/3.8 reflector + CCD.
(L38) Gartensternwarte Schafsweide, Sehlde  (N52.095274 E9.699970)  Germany.
   Observer A. Opitz. 0.35-m f/4.6 Newton + CCD.
(L65) Bredenkamp Observatory, Bremen  (N53.075279 E8.828310)  Germany.
   Observer H. Duin. 0.23-m f/6.3 reflector + CMO.
(M35) PS Observatory, Parjol  (N46.575378 E26.616690).  Observer R. Anghel.
   Measurers R. Anghel, A. Anghel. 0.2-m f/12 Cassegrain + CCD.
(M45) Starhopper Observatory, Sfantu Gheorghe  (N45.865494 E25.768890)
   Romania.  Observer F. Ursache. 0.41-m f/7.5 reflector + CMO.
(P13) Baihuashan Observatory, Beijing  (N39.837554 E115.573330)  China.
   Observers Z. Wang, B. Liu. Measurer Z. Wang. 0.28-m f/2.2 reflector + CMO.
(W05) Tree Gate Farm Observatory, Starkville  (N33.347635 W88.732810).
   Observer J.-F. Gout. 0.5-m f/1.5 reflector + CMOS.
(W13) Star Quarry Observatory, Bedford  (N38.977039 W86.526390)  US/Indiana.
   Observer C. J. Horowitz. 0.20-m f/2 Schmidt-Cassegrain + CMO.

Orbital elements:  C45ZGL1
   Perigee 2026 Mar 9.255923 +/- 8.15e-6 TT =  6:08:31.7 (JD 2461108.755923)
Epoch 2026 Mar  9.0 TT = JDT 2461108.5                           AutoNEOCP
q278401.0710 +/- 44.4               (J2000 equator)
H   27.64 G 0.15                    Peri.   93.602350 +/- 0.00027
                                    Node   183.757608 +/- 0.00007
e 442.88778872 +/- 0.216            Incl.  109.174878 +/- 0.00018
From 60 observations 2026 Mar. 8-9 (16.6 hr); mean residual 0".87
Residuals in arcseconds: 
260308 703  .68+  .45-    260308 L04  .08-  .48+    260308 958  .20-  1.1-    
260308 703  .83+  .77+    260308 L04  .11-  .56+    260308 958  .24+  .66-    
260308 703  .04+  .01+    260308 595  .02-  .09-    260308 958  .18+  .46-    
260308 703  .10+  .29-    260308 595  .29+  .20+    260308 L65  .09+  .93-    
260308 G96  .44+  .74-    260308 595  .14+  .11-    260308 L65  .36+  .71-    
260308 G96  .57-  .11-    260308 G02  .16+  .15+    260308 L65  .24+  1.0-    
260308 G96  .62-  .54+    260308 G02  .39+  .29+    260308 K88  1.0+  1.1-    
260308 G96  .10-  .41+    260308 G02  .11-  .80+    260308 K88  .89+  1.3-    
260308 H01  .24-  .21+    260308 L18  .34+  .72-    260308 K88  .58+  1.8-    
260308 H01  .05-  .09+    260308 L18  .39-  .83+    260308 L38  .27-  .47+    
260308 I52  .17+  .01-    260308 L18  1.0-  1.1+    260308 L38  .15-  .84+    
260308 H01  .01-  .10+    260308 104  .46-  .46-    260309 932  .64+  1.9-    
260308 I52  .05+  .30-    260308 104  .64+  .52-    260309 932  .49+  2.1-    
260308 I52  .18+  .42-    260308 104  .28+  .66-    260309 932  .70+  1.8-    
